sat.trackr.live / text

‹ back to catalog

STARLINK-3893

NORAD 52579 · 2022-051AV

PAYLOAD ACTIVE UNKNOWN

§ Identity

Operator
Country
US
Launch date
2022-05-13
Launch site
AFWTR
Launch vehicle
Mass (kg)
RCS (m²)

Purposes: comms

External: N2YO · Heavens-Above · Gunter

§ Orbital elements

Epoch: 2026-05-25T00:44:44.226816Z

Period
95.44 min
Inclination
53.2167°
Eccentricity
0.0001144
Mean motion
15.08835906 rev/d
Perigee alt
539.0 km
Apogee alt
540.5 km
Semi-major
6,917.9 km
B*
3.7960e-6
RAAN
151.4120°
Arg perigee
70.5181°
Mean anomaly
289.5934°
Rev number
22,290

§ Raw data

STARLINK-38931 52579U 22051AV  26145.03106744 -.00000227  00000+0  37960-5 0  99922 52579  53.2167 151.4120 0001144  70.5181 289.5934 15.08835906222900

JSON: /api/v1/satellites/52579 · /tle

For live sub-satellite position, see the globe view (requires WebGL).

§ Visibility from observer

Set your observer location to see the next 7 days of passes ≥ 10°. The values pass through the URL so the page stays shareable.

No JS? Fill the form by hand. The geolocation button needs JavaScript.